Time,TemperatureF,DewpointF,PressureIn,WindDirection,WindDirectionDegrees,WindSpeedMPH,WindSpeedGustMPH,Humidity,HourlyPrecipIn,Conditions,Clouds,dailyrainin,SoftwareType,DateUTC
2013-09-23 00:01:00,51.8,43.8,29.99,NNW,338,0.0,1.6,74,2.59,,,0.00,WUHU216HW,2013-09-23 04:01:00,
2013-09-23 00:02:00,51.8,43.8,29.99,NNW,338,0.2,1.6,74,2.59,,,0.04,WUHU216HW,2013-09-23 04:02:00,
2013-09-23 00:07:00,51.8,43.8,29.99,NNW,338,0.0,0.4,74,2.59,,,0.04,WUHU216HW,2013-09-23 04:07:00,
2013-09-23 00:12:00,51.8,43.8,29.99,North,0,0.0,0.4,74,2.59,,,0.04,WUHU216HW,2013-09-23 04:12:00,
2013-09-23 00:17:00,52.0,44.0,29.99,North,0,0.0,0.9,74,2.59,,,0.04,WUHU216HW,2013-09-23 04:17:00,
2013-09-23 00:22:00,52.0,44.0,29.99,North,0,0.0,0.9,74,2.59,,,0.04,WUHU216HW,2013-09-23 04:22:00,
2013-09-23 00:27:00,52.0,44.0,29.99,NNW,338,0.0,1.1,74,2.59,,,0.04,WUHU216HW,2013-09-23 04:27:00,
2013-09-23 00:32:00,52.0,44.0,29.99,NE,45,1.1,1.8,74,2.59,,,0.04,WUHU216HW,2013-09-23 04:32:00,
2013-09-23 00:37:00,52.0,44.0,29.99,NNE,23,0.2,1.8,74,2.59,,,0.04,WUHU216HW,2013-09-23 04:37:00,
2013-09-23 00:42:00,52.0,44.0,29.99,NNE,23,0.2,1.1,74,2.59,,,0.04,WUHU216HW,2013-09-23 04:42:00,
2013-09-23 00:47:00,52.0,44.0,29.99,NE,45,0.0,1.1,74,2.59,,,0.04,WUHU216HW,2013-09-23 04:47:00,
2013-09-23 00:52:00,52.0,44.4,29.99,NE,45,0.4,1.3,75,2.59,,,0.04,WUHU216HW,2013-09-23 04:52:00,
2013-09-23 00:57:00,51.8,44.2,29.99,NNW,338,1.1,1.3,75,2.59,,,0.04,WUHU216HW,2013-09-23 04:57:00,
2013-09-23 01:02:00,51.8,44.2,29.99,NE,45,0.2,2.0,75,2.59,,,0.08,WUHU216HW,2013-09-23 05:02:00,
2013-09-23 01:07:00,51.8,44.2,29.99,NE,45,0.2,2.0,75,2.59,,,0.08,WUHU216HW,2013-09-23 05:07:00,
2013-09-23 01:12:00,51.8,44.2,29.99,NNW,338,0.0,0.4,75,2.59,,,0.08,WUHU216HW,2013-09-23 05:12:00,
2013-09-23 01:17:00,51.8,44.2,29.99,North,0,0.4,2.5,75,2.59,,,0.08,WUHU216HW,2013-09-23 05:17:00,
2013-09-23 01:22:00,51.7,44.0,29.99,NE,45,1.3,2.5,75,2.59,,,0.08,WUHU216HW,2013-09-23 05:22:00,
2013-09-23 01:27:00,51.7,44.0,29.99,NNW,338,0.2,1.3,75,2.59,,,0.08,WUHU216HW,2013-09-23 05:27:00,
2013-09-23 01:32:00,51.7,44.0,29.99,North,0,0.4,1.8,75,2.59,,,0.08,WUHU216HW,2013-09-23 05:32:00,
2013-09-23 01:37:00,51.7,44.0,30.00,NNE,23,0.0,1.8,75,2.59,,,0.08,WUHU216HW,2013-09-23 05:37:00,
2013-09-23 01:42:00,51.7,44.4,30.00,ENE,68,0.4,1.1,76,2.59,,,0.08,WUHU216HW,2013-09-23 05:42:00,
2013-09-23 01:47:00,51.7,44.4,30.00,NNW,338,0.0,1.1,76,2.59,,,0.08,WUHU216HW,2013-09-23 05:47:00,
2013-09-23 01:52:00,51.8,44.6,30.00,NNW,338,0.0,1.1,76,2.59,,,0.08,WUHU216HW,2013-09-23 05:52:00,
2013-09-23 01:57:00,51.7,44.4,30.00,North,0,0.4,1.1,76,2.59,,,0.08,WUHU216HW,2013-09-23 05:57:00,
2013-09-23 02:02:00,51.7,44.4,30.01,North,0,0.2,0.9,76,2.59,,,0.12,WUHU216HW,2013-09-23 06:02:00,
2013-09-23 02:07:00,51.7,44.4,30.01,NW,315,0.0,1.1,76,2.59,,,0.12,WUHU216HW,2013-09-23 06:07:00,
2013-09-23 02:12:00,51.7,44.4,30.01,ENE,68,0.0,1.1,76,2.59,,,0.12,WUHU216HW,2013-09-23 06:12:00,
2013-09-23 02:17:00,51.7,44.4,30.01,North,0,0.0,2.0,76,2.59,,,0.12,WUHU216HW,2013-09-23 06:17:00,
2013-09-23 02:22:00,51.8,44.6,30.01,North,0,0.4,2.0,76,2.59,,,0.12,WUHU216HW,2013-09-23 06:22:00,
2013-09-23 02:24:00,51.8,44.6,30.01,NNE,23,0.4,0.7,76,2.59,,,0.12,WUHU216HW,2013-09-23 06:24:00,
2013-09-23 02:27:00,51.8,44.6,30.01,NNE,23,0.4,1.6,76,2.59,,,0.12,WUHU216HW,2013-09-23 06:27:00,
2013-09-23 02:32:00,51.8,44.6,30.01,NNE,23,0.4,1.6,76,2.59,,,0.12,WUHU216HW,2013-09-23 06:32:00,
2013-09-23 02:55:00,51.8,44.9,30.02,NE,45,0.0,0.0,77,2.59,,,0.12,WUHU216HW,2013-09-23 06:55:00,
2013-09-23 03:00:00,51.8,44.9,30.01,ENE,68,0.0,0.7,77,0.00,,,0.12,WUHU216HW,2013-09-23 07:00:00,
2013-09-23 03:05:00,51.8,44.9,30.01,NE,45,0.0,0.7,77,2.59,,,0.17,WUHU216HW,2013-09-23 07:05:00,
2013-09-23 03:10:00,51.8,44.9,30.01,NNW,338,0.2,1.3,77,2.59,,,0.17,WUHU216HW,2013-09-23 07:10:00,
2013-09-23 03:15:00,51.8,44.9,30.01,North,0,0.0,1.3,77,2.59,,,0.17,WUHU216HW,2013-09-23 07:15:00,
2013-09-23 03:20:00,51.8,44.9,30.01,NE,45,1.1,1.1,77,2.59,,,0.17,WUHU216HW,2013-09-23 07:20:00,
2013-09-23 03:25:00,51.8,44.9,30.01,North,0,0.0,1.1,77,2.59,,,0.17,WUHU216HW,2013-09-23 07:25:00,
2013-09-23 03:30:00,51.8,45.2,30.01,North,0,0.0,1.1,78,2.59,,,0.17,WUHU216HW,2013-09-23 07:30:00,
2013-09-23 03:35:00,51.8,45.2,30.01,NNE,23,1.1,1.1,78,2.59,,,0.17,WUHU216HW,2013-09-23 07:35:00,
2013-09-23 03:40:00,51.8,45.2,30.01,NE,45,0.9,1.1,78,2.59,,,0.17,WUHU216HW,2013-09-23 07:40:00,
2013-09-23 03:43:00,51.8,45.2,30.01,North,0,0.0,0.2,78,2.59,,,0.17,WUHU216HW,2013-09-23 07:43:00,
2013-09-23 03:45:00,51.8,45.2,30.01,North,0,0.0,1.6,78,2.59,,,0.17,WUHU216HW,2013-09-23 07:45:00,
2013-09-23 03:50:00,51.8,45.2,30.01,North,0,0.0,1.6,78,2.59,,,0.17,WUHU216HW,2013-09-23 07:50:00,
2013-09-23 04:00:00,51.7,45.0,30.02,NE,45,0.0,0.0,78,0.00,,,0.17,WUHU216HW,2013-09-23 08:00:00,
2013-09-23 04:05:00,51.7,44.7,30.01,NE,45,1.1,2.2,77,2.59,,,0.21,WUHU216HW,2013-09-23 08:05:00,
2013-09-23 04:10:00,51.7,44.7,30.01,ENE,68,0.9,2.2,77,2.59,,,0.21,WUHU216HW,2013-09-23 08:10:00,
2013-09-23 04:15:00,51.7,44.7,30.02,NW,315,0.0,1.1,77,2.59,,,0.21,WUHU216HW,2013-09-23 08:15:00,
2013-09-23 04:20:00,51.7,45.0,30.02,ENE,68,0.4,1.1,78,2.59,,,0.21,WUHU216HW,2013-09-23 08:20:00,
2013-09-23 04:25:00,51.7,45.0,30.02,ENE,68,0.4,0.7,78,2.59,,,0.21,WUHU216HW,2013-09-23 08:25:00,
2013-09-23 04:30:00,51.8,45.2,30.02,NNW,338,0.4,1.3,78,2.59,,,0.21,WUHU216HW,2013-09-23 08:30:00,
2013-09-23 04:35:00,51.7,44.7,30.02,NNW,338,1.1,4.5,77,2.59,,,0.21,WUHU216HW,2013-09-23 08:35:00,
2013-09-23 04:40:00,51.7,44.7,30.02,NE,45,0.2,4.5,77,2.59,,,0.21,WUHU216HW,2013-09-23 08:40:00,
2013-09-23 04:45:00,51.7,45.0,30.02,NE,45,0.4,1.1,78,2.59,,,0.21,WUHU216HW,2013-09-23 08:45:00,
2013-09-23 04:50:00,51.8,45.2,30.02,ENE,68,1.3,1.3,78,2.59,,,0.21,WUHU216HW,2013-09-23 08:50:00,
2013-09-23 04:55:00,51.8,45.2,30.02,East,90,0.2,1.3,78,2.59,,,0.21,WUHU216HW,2013-09-23 08:55:00,
2013-09-23 05:00:00,51.7,45.0,30.02,NE,45,0.0,2.5,78,0.00,,,0.21,WUHU216HW,2013-09-23 09:00:00,
2013-09-23 05:05:00,51.8,45.2,30.02,NNE,23,0.2,2.5,78,2.59,,,0.25,WUHU216HW,2013-09-23 09:05:00,
2013-09-23 05:10:00,51.7,45.0,30.02,ENE,68,0.9,2.5,78,2.59,,,0.25,WUHU216HW,2013-09-23 09:10:00,
2013-09-23 05:15:00,51.5,44.8,30.02,North,0,0.4,1.3,78,2.59,,,0.25,WUHU216HW,2013-09-23 09:15:00,
2013-09-23 05:20:00,51.5,44.8,30.02,ENE,68,1.6,2.5,78,2.59,,,0.25,WUHU216HW,2013-09-23 09:20:00,
2013-09-23 05:25:00,51.5,44.8,30.02,NNE,23,1.6,2.5,78,2.59,,,0.25,WUHU216HW,2013-09-23 09:25:00,
2013-09-23 05:30:00,51.3,44.6,30.02,NNE,23,1.1,2.2,78,2.59,,,0.25,WUHU216HW,2013-09-23 09:30:00,
2013-09-23 05:35:00,51.3,44.6,30.02,NE,45,0.7,3.6,78,2.59,,,0.25,WUHU216HW,2013-09-23 09:35:00,
2013-09-23 05:40:00,51.1,44.5,30.02,East,90,2.7,3.6,78,2.59,,,0.25,WUHU216HW,2013-09-23 09:40:00,
2013-09-23 05:45:00,50.9,44.3,30.03,ESE,113,1.3,3.4,78,2.59,,,0.25,WUHU216HW,2013-09-23 09:45:00,
2013-09-23 05:50:00,50.8,44.1,30.03,NNE,23,1.8,3.4,78,2.59,,,0.25,WUHU216HW,2013-09-23 09:50:00,
2013-09-23 05:55:00,50.8,44.1,30.03,ENE,68,1.1,2.5,78,2.59,,,0.25,WUHU216HW,2013-09-23 09:55:00,
2013-09-23 06:00:00,50.6,43.9,30.03,ENE,68,1.8,2.0,78,2.59,,,0.25,WUHU216HW,2013-09-23 10:00:00,
2013-09-23 06:05:00,50.6,43.9,30.03,ENE,68,0.9,2.2,78,2.59,,,0.29,WUHU216HW,2013-09-23 10:05:00,
2013-09-23 06:10:00,50.4,43.7,30.03,ENE,68,1.1,2.2,78,2.59,,,0.29,WUHU216HW,2013-09-23 10:10:00,
2013-09-23 06:15:00,50.2,43.6,30.03,ENE,68,0.4,1.8,78,2.59,,,0.29,WUHU216HW,2013-09-23 10:15:00,
2013-09-23 06:20:00,50.0,43.7,30.03,ENE,68,0.4,1.3,79,2.59,,,0.29,WUHU216HW,2013-09-23 10:20:00,
2013-09-23 06:25:00,50.0,43.7,30.03,ENE,68,0.0,1.1,79,2.59,,,0.29,WUHU216HW,2013-09-23 10:25:00,
2013-09-23 06:30:00,49.9,43.6,30.04,ENE,68,0.0,1.1,79,2.59,,,0.29,WUHU216HW,2013-09-23 10:30:00,
2013-09-23 06:35:00,49.5,43.2,30.04,ENE,68,1.3,1.3,79,2.59,,,0.29,WUHU216HW,2013-09-23 10:35:00,
2013-09-23 06:40:00,49.3,43.0,30.04,ENE,68,0.0,1.3,79,2.59,,,0.29,WUHU216HW,2013-09-23 10:40:00,
2013-09-23 06:45:00,49.1,43.2,30.04,East,90,0.0,1.3,80,2.59,,,0.29,WUHU216HW,2013-09-23 10:45:00,
2013-09-23 06:50:00,49.0,43.0,30.05,ENE,68,0.0,0.0,80,2.59,,,0.29,WUHU216HW,2013-09-23 10:50:00,
2013-09-23 06:55:00,48.6,42.7,30.05,North,0,0.0,0.0,80,2.59,,,0.29,WUHU216HW,2013-09-23 10:55:00,
2013-09-23 07:00:00,48.4,42.5,30.05,NNW,338,0.0,0.0,80,2.59,,,0.29,WUHU216HW,2013-09-23 11:00:00,
2013-09-23 07:05:00,48.1,42.1,30.05,NW,315,0.0,0.0,80,2.59,,,0.33,WUHU216HW,2013-09-23 11:05:00,
2013-09-23 07:10:00,47.9,41.9,30.06,NW,315,0.0,0.0,80,2.59,,,0.33,WUHU216HW,2013-09-23 11:10:00,
2013-09-23 07:15:00,47.5,41.7,30.06,NW,315,0.0,0.0,80,2.59,,,0.33,WUHU216HW,2013-09-23 11:15:00,
2013-09-23 07:20:00,47.3,41.5,30.06,NW,315,0.0,0.0,80,2.59,,,0.33,WUHU216HW,2013-09-23 11:20:00,
2013-09-23 07:25:00,47.2,41.3,30.06,NW,315,0.0,0.0,80,2.59,,,0.33,WUHU216HW,2013-09-23 11:25:00,
2013-09-23 07:30:00,47.0,41.1,30.06,WSW,248,0.0,0.2,80,2.59,,,0.33,WUHU216HW,2013-09-23 11:30:00,
2013-09-23 07:35:00,46.8,41.1,30.06,West,270,0.0,0.2,80,2.59,,,0.33,WUHU216HW,2013-09-23 11:35:00,
2013-09-23 07:40:00,46.6,40.9,30.06,SW,225,0.2,0.4,80,2.59,,,0.33,WUHU216HW,2013-09-23 11:40:00,
2013-09-23 07:45:00,46.4,41.0,30.06,WSW,248,0.4,0.7,81,2.59,,,0.33,WUHU216HW,2013-09-23 11:45:00,
2013-09-23 07:50:00,46.4,41.0,30.06,NW,315,0.0,0.7,81,2.59,,,0.33,WUHU216HW,2013-09-23 11:50:00,
2013-09-23 07:55:00,46.3,40.8,30.06,WNW,293,0.2,0.4,81,2.59,,,0.33,WUHU216HW,2013-09-23 11:55:00,
2013-09-23 08:00:00,46.3,40.8,30.07,WNW,293,0.0,0.4,81,2.59,,,0.33,WUHU216HW,2013-09-23 12:00:00,
2013-09-23 08:05:00,46.3,40.8,30.07,NW,315,0.0,0.4,81,2.59,,,0.37,WUHU216HW,2013-09-23 12:05:00,
2013-09-23 08:10:00,46.3,41.1,30.06,NW,315,0.0,0.4,82,2.59,,,0.37,WUHU216HW,2013-09-23 12:10:00,
2013-09-23 08:15:00,46.4,41.3,30.06,SW,225,0.0,0.4,82,2.59,,,0.37,WUHU216HW,2013-09-23 12:15:00,
2013-09-23 08:20:00,46.4,41.3,30.07,NW,315,0.0,0.2,82,2.59,,,0.37,WUHU216HW,2013-09-23 12:20:00,
2013-09-23 08:25:00,46.6,41.5,30.07,NW,315,0.0,0.2,82,2.59,,,0.37,WUHU216HW,2013-09-23 12:25:00,
2013-09-23 08:30:00,46.8,42.0,30.07,SE,135,0.4,0.9,83,2.59,,,0.37,WUHU216HW,2013-09-23 12:30:00,
2013-09-23 08:35:00,47.2,42.3,30.07,ESE,113,1.1,1.1,83,2.59,,,0.37,WUHU216HW,2013-09-23 12:35:00,
2013-09-23 08:40:00,47.5,42.6,30.07,NNW,338,0.4,1.1,83,2.59,,,0.37,WUHU216HW,2013-09-23 12:40:00,
2013-09-23 08:45:00,47.7,42.8,30.07,SSW,203,0.2,1.1,83,2.59,,,0.37,WUHU216HW,2013-09-23 12:45:00,
2013-09-23 08:50:00,48.1,43.1,30.07,SE,135,0.7,1.6,83,2.59,,,0.37,WUHU216HW,2013-09-23 12:50:00,
2013-09-23 08:55:00,48.2,43.3,30.07,ESE,113,0.9,1.8,83,2.59,,,0.37,WUHU216HW,2013-09-23 12:55:00,
2013-09-23 09:00:00,48.6,43.7,30.08,NE,45,0.9,2.5,83,2.59,,,0.37,WUHU216HW,2013-09-23 13:00:00,
2013-09-23 09:05:00,49.0,43.7,30.08,SE,135,0.4,2.9,82,2.59,,,0.41,WUHU216HW,2013-09-23 13:05:00,
2013-09-23 09:10:00,49.3,44.0,30.08,ESE,113,0.9,2.9,82,2.59,,,0.41,WUHU216HW,2013-09-23 13:10:00,
2013-09-23 09:15:00,49.5,44.2,30.08,SE,135,0.4,2.0,82,2.59,,,0.41,WUHU216HW,2013-09-23 13:15:00,
2013-09-23 09:20:00,50.0,44.1,30.08,South,180,0.7,2.0,80,2.59,,,0.41,WUHU216HW,2013-09-23 13:20:00,
2013-09-23 09:25:00,50.2,43.9,30.08,ENE,68,1.8,4.0,79,2.59,,,0.41,WUHU216HW,2013-09-23 13:25:00,
2013-09-23 09:30:00,50.6,43.9,30.08,NW,315,2.2,4.0,78,2.59,,,0.41,WUHU216HW,2013-09-23 13:30:00,
2013-09-23 09:35:00,50.8,44.1,30.08,ENE,68,4.5,5.4,78,2.59,,,0.41,WUHU216HW,2013-09-23 13:35:00,
2013-09-23 09:40:00,50.9,44.0,30.08,ENE,68,2.2,5.4,77,2.59,,,0.41,WUHU216HW,2013-09-23 13:40:00,
2013-09-23 09:45:00,51.3,44.0,30.08,NE,45,2.0,5.4,76,2.59,,,0.41,WUHU216HW,2013-09-23 13:45:00,
2013-09-23 09:50:00,51.5,43.8,30.08,West,270,2.0,5.4,75,2.59,,,0.41,WUHU216HW,2013-09-23 13:50:00,
2013-09-23 09:55:00,51.8,43.5,30.09,NNW,338,4.0,5.6,73,2.59,,,0.41,WUHU216HW,2013-09-23 13:55:00,
2013-09-23 10:00:00,51.8,43.2,30.08,NW,315,2.2,5.6,72,2.59,,,0.41,WUHU216HW,2013-09-23 14:00:00,
2013-09-23 10:05:00,52.0,43.3,30.09,NE,45,2.2,4.7,72,2.59,,,0.45,WUHU216HW,2013-09-23 14:05:00,
2013-09-23 10:10:00,52.2,43.1,30.09,NNW,338,1.8,4.0,71,2.59,,,0.45,WUHU216HW,2013-09-23 14:10:00,
2013-09-23 10:15:00,52.2,43.1,30.09,NNW,338,2.0,4.0,71,2.59,,,0.45,WUHU216HW,2013-09-23 14:15:00,
2013-09-23 10:20:00,52.6,43.1,30.09,WSW,248,3.6,4.0,70,2.59,,,0.45,WUHU216HW,2013-09-23 14:20:00,
2013-09-23 10:25:00,52.7,43.7,30.09,NNW,338,1.8,4.0,71,2.59,,,0.45,WUHU216HW,2013-09-23 14:25:00,
2013-09-23 10:30:00,53.3,43.7,30.09,NNW,338,2.9,3.4,70,2.59,,,0.45,WUHU216HW,2013-09-23 14:30:00,
2013-09-23 10:35:00,53.6,43.8,30.09,NE,45,3.4,4.5,69,2.59,,,0.45,WUHU216HW,2013-09-23 14:35:00,
2013-09-23 10:40:00,53.8,44.3,30.09,ENE,68,2.0,4.7,70,2.59,,,0.45,WUHU216HW,2013-09-23 14:40:00,
2013-09-23 10:45:00,54.4,44.5,30.09,WNW,293,3.4,4.7,69,2.59,,,0.45,WUHU216HW,2013-09-23 14:45:00,
2013-09-23 10:50:00,54.7,44.4,30.09,SSE,158,0.2,5.4,68,2.59,,,0.45,WUHU216HW,2013-09-23 14:50:00,
2013-09-23 10:55:00,55.1,45.1,30.09,NNW,338,2.5,5.4,69,2.59,,,0.45,WUHU216HW,2013-09-23 14:55:00,
2013-09-23 11:00:00,55.3,44.5,30.09,NNW,338,1.1,4.9,67,2.59,,,0.45,WUHU216HW,2013-09-23 15:00:00,
2013-09-23 11:05:00,55.1,44.3,30.09,NE,45,2.5,5.8,67,2.59,,,0.57,WUHU216HW,2013-09-23 15:05:00,
2013-09-23 11:10:00,54.7,43.6,30.10,NNE,23,1.3,5.8,66,2.59,,,0.57,WUHU216HW,2013-09-23 15:10:00,
2013-09-23 11:15:00,54.7,43.9,30.10,NE,45,1.6,3.8,67,2.59,,,0.57,WUHU216HW,2013-09-23 15:15:00,
2013-09-23 11:20:00,54.9,44.1,30.10,ENE,68,2.0,3.8,67,2.59,,,0.57,WUHU216HW,2013-09-23 15:20:00,
2013-09-23 11:25:00,55.4,44.3,30.10,North,0,1.3,6.0,66,2.59,,,0.57,WUHU216HW,2013-09-23 15:25:00,
2013-09-23 11:30:00,55.6,43.6,30.10,ESE,113,1.8,6.0,64,2.59,,,0.57,WUHU216HW,2013-09-23 15:30:00,
2013-09-23 11:35:00,55.8,43.7,30.10,NE,45,4.9,5.6,64,2.59,,,0.57,WUHU216HW,2013-09-23 15:35:00,
2013-09-23 11:40:00,56.0,43.9,30.10,NNE,23,3.4,7.4,64,2.59,,,0.57,WUHU216HW,2013-09-23 15:40:00,
2013-09-23 11:45:00,55.8,43.7,30.10,North,0,1.3,7.4,64,2.59,,,0.57,WUHU216HW,2013-09-23 15:45:00,
2013-09-23 11:50:00,56.0,43.9,30.10,NW,315,2.9,4.5,64,2.59,,,0.57,WUHU216HW,2013-09-23 15:50:00,
2013-09-23 11:55:00,55.8,43.7,30.10,ESE,113,1.3,3.6,64,2.59,,,0.57,WUHU216HW,2013-09-23 15:55:00,
2013-09-23 12:00:00,56.0,44.4,30.09,ENE,68,1.8,5.1,65,2.59,,,0.57,WUHU216HW,2013-09-23 16:00:00,
2013-09-23 12:05:00,56.9,44.8,30.10,NE,45,5.4,5.4,64,2.59,,,0.61,WUHU216HW,2013-09-23 16:05:00,
2013-09-23 12:10:00,56.7,43.8,30.10,North,0,1.8,5.4,62,2.59,,,0.61,WUHU216HW,2013-09-23 16:10:00,
2013-09-23 12:15:00,56.3,43.0,30.10,NNE,23,1.6,5.4,61,2.59,,,0.61,WUHU216HW,2013-09-23 16:15:00,
2013-09-23 12:20:00,56.3,43.5,30.10,NE,45,3.4,5.1,62,2.59,,,0.61,WUHU216HW,2013-09-23 16:20:00,
2013-09-23 12:25:00,56.9,43.6,30.09,SW,225,5.1,5.1,61,2.59,,,0.61,WUHU216HW,2013-09-23 16:25:00,
2013-09-23 12:26:00,57.1,44.2,30.09,NW,315,2.5,2.5,62,2.59,,,0.61,WUHU216HW,2013-09-23 16:26:00,
2013-09-23 12:30:00,57.1,44.2,30.09,NW,315,2.5,5.1,62,2.59,,,0.61,WUHU216HW,2013-09-23 16:30:00,
2013-09-23 12:35:00,57.1,44.2,30.09,NW,315,2.5,5.1,62,2.59,,,0.61,WUHU216HW,2013-09-23 16:35:00,
2013-09-23 12:57:00,58.1,43.9,30.11,NE,45,5.1,5.1,59,2.59,,,0.61,WUHU216HW,2013-09-23 16:57:00,
2013-09-23 13:02:00,58.5,44.2,30.09,NNE,23,2.5,5.6,59,2.59,,,0.65,WUHU216HW,2013-09-23 17:02:00,
2013-09-23 13:07:00,58.9,44.1,30.09,NW,315,1.6,5.6,58,2.59,,,0.65,WUHU216HW,2013-09-23 17:07:00,
2013-09-23 13:12:00,58.7,43.5,30.09,SE,135,1.8,4.3,57,2.59,,,0.65,WUHU216HW,2013-09-23 17:12:00,
2013-09-23 13:17:00,58.9,44.1,30.09,East,90,2.9,5.8,58,2.59,,,0.65,WUHU216HW,2013-09-23 17:17:00,
2013-09-23 13:22:00,59.0,43.3,30.09,NNW,338,2.9,5.8,56,2.59,,,0.65,WUHU216HW,2013-09-23 17:22:00,
2013-09-23 13:27:00,58.7,43.5,30.09,NNE,23,2.5,3.4,57,2.59,,,0.65,WUHU216HW,2013-09-23 17:27:00,
2013-09-23 13:32:00,59.2,43.9,30.09,NW,315,3.8,3.8,57,2.59,,,0.65,WUHU216HW,2013-09-23 17:32:00,
2013-09-23 13:37:00,59.4,43.7,30.09,NNW,338,1.1,4.3,56,2.59,,,0.65,WUHU216HW,2013-09-23 17:37:00,
2013-09-23 13:42:00,59.8,44.5,30.08,NNW,338,1.1,4.3,57,2.59,,,0.65,WUHU216HW,2013-09-23 17:42:00,
2013-09-23 13:47:00,60.1,44.8,30.08,East,90,2.5,4.0,57,2.59,,,0.65,WUHU216HW,2013-09-23 17:47:00,
2013-09-23 13:52:00,60.5,44.2,30.08,NNW,338,4.9,4.9,55,2.59,,,0.65,WUHU216HW,2013-09-23 17:52:00,
2013-09-23 13:57:00,60.8,44.6,30.08,WNW,293,2.5,4.9,55,2.59,,,0.65,WUHU216HW,2013-09-23 17:57:00,
2013-09-23 14:02:00,61.2,45.4,30.08,NNE,23,3.1,5.4,56,2.59,,,0.69,WUHU216HW,2013-09-23 18:02:00,
2013-09-23 14:07:00,61.9,45.6,30.08,North,0,1.8,5.6,55,2.59,,,0.69,WUHU216HW,2013-09-23 18:07:00,
2013-09-23 14:12:00,61.6,44.7,30.08,South,180,0.4,5.6,54,2.59,,,0.69,WUHU216HW,2013-09-23 18:12:00,
2013-09-23 14:17:00,61.2,44.4,30.08,North,0,3.8,3.8,54,2.59,,,0.69,WUHU216HW,2013-09-23 18:17:00,
2013-09-23 14:22:00,61.6,44.7,30.07,NE,45,1.1,3.8,54,2.59,,,0.69,WUHU216HW,2013-09-23 18:22:00,
2013-09-23 14:27:00,61.9,44.6,30.07,ENE,68,2.2,4.3,53,2.59,,,0.69,WUHU216HW,2013-09-23 18:27:00,
2013-09-23 14:32:00,62.1,45.2,30.07,NW,315,4.7,4.9,54,2.59,,,0.69,WUHU216HW,2013-09-23 18:32:00,
2013-09-23 14:37:00,61.9,45.0,30.07,NE,45,1.8,4.9,54,2.59,,,0.69,WUHU216HW,2013-09-23 18:37:00,
2013-09-23 14:42:00,61.6,44.2,30.07,WNW,293,2.5,4.5,53,2.59,,,0.69,WUHU216HW,2013-09-23 18:42:00,
2013-09-23 14:47:00,61.6,44.2,30.07,SSW,203,0.7,4.7,53,2.59,,,0.69,WUHU216HW,2013-09-23 18:47:00,
2013-09-23 14:52:00,62.1,43.3,30.07,NNE,23,1.3,4.9,50,2.59,,,0.69,WUHU216HW,2013-09-23 18:52:00,
2013-09-23 14:57:00,63.0,45.0,30.07,NE,45,6.5,6.5,52,2.59,,,0.69,WUHU216HW,2013-09-23 18:57:00,
2013-09-23 15:02:00,63.9,45.8,30.07,NNE,23,1.1,6.5,52,2.59,,,0.73,WUHU216HW,2013-09-23 19:02:00,
2013-09-23 15:07:00,64.4,45.4,30.07,NNW,338,4.9,4.9,50,2.59,,,0.73,WUHU216HW,2013-09-23 19:07:00,
2013-09-23 15:12:00,64.3,44.0,30.07,West,270,2.5,6.0,48,2.59,,,0.73,WUHU216HW,2013-09-23 19:12:00,
2013-09-23 15:17:00,64.4,45.4,30.06,East,90,3.1,6.0,50,2.59,,,0.73,WUHU216HW,2013-09-23 19:17:00,
2013-09-23 15:22:00,65.0,44.7,30.06,NW,315,6.9,6.9,48,2.59,,,0.73,WUHU216HW,2013-09-23 19:22:00,
2013-09-23 15:27:00,64.3,42.9,30.06,North,0,2.9,7.6,46,2.59,,,0.73,WUHU216HW,2013-09-23 19:27:00,
2013-09-23 15:32:00,64.1,42.8,30.06,NE,45,4.7,7.6,46,2.59,,,0.73,WUHU216HW,2013-09-23 19:32:00,
2013-09-23 15:37:00,64.4,44.2,30.06,NNW,338,2.5,4.9,48,2.59,,,0.73,WUHU216HW,2013-09-23 19:37:00,
2013-09-23 15:42:00,65.0,44.7,30.06,ENE,68,1.8,4.9,48,2.59,,,0.73,WUHU216HW,2013-09-23 19:42:00,
2013-09-23 15:47:00,65.3,45.1,30.06,NNE,23,1.8,3.4,48,2.59,,,0.73,WUHU216HW,2013-09-23 19:47:00,
2013-09-23 15:52:00,65.2,43.7,30.05,West,270,2.5,4.7,46,2.59,,,0.73,WUHU216HW,2013-09-23 19:52:00,
2013-09-23 15:57:00,64.8,43.4,30.05,NW,315,2.9,4.7,46,2.59,,,0.73,WUHU216HW,2013-09-23 19:57:00,
2013-09-23 16:02:00,64.8,44.6,30.05,NE,45,2.0,4.7,48,2.59,,,0.77,WUHU216HW,2013-09-23 20:02:00,
2013-09-23 16:07:00,65.3,45.7,30.05,NW,315,2.0,4.0,49,2.59,,,0.77,WUHU216HW,2013-09-23 20:07:00,
2013-09-23 16:12:00,65.2,44.4,30.05,North,0,4.5,6.3,47,2.59,,,0.77,WUHU216HW,2013-09-23 20:12:00,
2013-09-23 16:17:00,64.6,44.4,30.06,ESE,113,1.6,6.3,48,2.59,,,0.77,WUHU216HW,2013-09-23 20:17:00,
2013-09-23 16:22:00,64.8,44.6,30.06,WNW,293,1.3,4.0,48,2.59,,,0.77,WUHU216HW,2013-09-23 20:22:00,
2013-09-23 16:27:00,65.2,46.1,30.06,ESE,113,1.3,3.4,50,2.59,,,0.77,WUHU216HW,2013-09-23 20:27:00,
2013-09-23 16:32:00,65.5,45.8,30.05,NNW,338,3.8,3.8,49,2.59,,,0.77,WUHU216HW,2013-09-23 20:32:00,
2013-09-23 16:37:00,65.2,44.9,30.06,NE,45,2.0,3.8,48,2.59,,,0.77,WUHU216HW,2013-09-23 20:37:00,
2013-09-23 16:42:00,65.2,44.4,30.06,North,0,0.9,3.6,47,2.59,,,0.77,WUHU216HW,2013-09-23 20:42:00,
2013-09-23 16:47:00,65.0,43.6,30.06,NNW,338,3.4,4.7,46,2.59,,,0.77,WUHU216HW,2013-09-23 20:47:00,
2013-09-23 16:52:00,64.3,42.9,30.06,West,270,4.0,6.7,46,2.59,,,0.77,WUHU216HW,2013-09-23 20:52:00,
2013-09-23 16:57:00,63.5,42.9,30.06,NW,315,2.2,6.7,47,2.59,,,0.77,WUHU216HW,2013-09-23 20:57:00,
2013-09-23 17:02:00,63.2,43.1,30.06,NNW,338,4.9,6.3,48,2.59,,,0.82,WUHU216HW,2013-09-23 21:02:00,
2013-09-23 17:07:00,63.2,43.1,30.06,NW,315,1.6,4.9,48,2.59,,,0.82,WUHU216HW,2013-09-23 21:07:00,
2013-09-23 17:12:00,63.4,43.8,30.06,NE,45,4.9,5.1,49,2.59,,,0.82,WUHU216HW,2013-09-23 21:12:00,
2013-09-23 17:17:00,63.9,44.3,30.06,NW,315,1.1,5.1,49,2.59,,,0.82,WUHU216HW,2013-09-23 21:17:00,
2013-09-23 17:22:00,64.4,43.7,30.07,NW,315,2.5,4.9,47,2.59,,,0.82,WUHU216HW,2013-09-23 21:22:00,
2013-09-23 17:27:00,64.3,42.9,30.07,NW,315,2.5,4.5,46,2.59,,,0.82,WUHU216HW,2013-09-23 21:27:00,
2013-09-23 17:32:00,64.1,43.3,30.07,WNW,293,1.8,4.5,47,2.59,,,0.82,WUHU216HW,2013-09-23 21:32:00,
2013-09-23 17:37:00,63.7,43.0,30.07,NNW,338,3.1,5.6,47,2.59,,,0.82,WUHU216HW,2013-09-23 21:37:00,
2013-09-23 17:42:00,63.0,42.3,30.07,NNW,338,3.6,6.9,47,2.59,,,0.82,WUHU216HW,2013-09-23 21:42:00,
2013-09-23 17:47:00,62.6,42.0,30.07,NNW,338,2.0,6.9,47,2.59,,,0.82,WUHU216HW,2013-09-23 21:47:00,
2013-09-23 17:52:00,62.6,42.0,30.07,NE,45,2.2,4.9,47,2.59,,,0.82,WUHU216HW,2013-09-23 21:52:00,
2013-09-23 17:57:00,63.4,43.2,30.07,North,0,1.3,4.7,48,2.59,,,0.82,WUHU216HW,2013-09-23 21:57:00,
2013-09-23 18:02:00,63.4,43.2,30.06,NE,45,0.7,4.7,48,2.59,,,0.86,WUHU216HW,2013-09-23 22:02:00,
2013-09-23 18:07:00,63.4,43.2,30.07,NE,45,2.5,3.8,48,2.59,,,0.86,WUHU216HW,2013-09-23 22:07:00,
2013-09-23 18:12:00,63.4,43.2,30.07,ENE,68,1.3,3.6,48,2.59,,,0.86,WUHU216HW,2013-09-23 22:12:00,
2013-09-23 18:17:00,63.4,43.2,30.07,ENE,68,2.5,3.6,48,2.59,,,0.86,WUHU216HW,2013-09-23 22:17:00,
2013-09-23 18:22:00,63.2,43.1,30.07,NW,315,0.7,2.5,48,2.59,,,0.86,WUHU216HW,2013-09-23 22:22:00,
2013-09-23 18:27:00,63.0,42.9,30.07,NNE,23,1.3,2.0,48,2.59,,,0.86,WUHU216HW,2013-09-23 22:27:00,
2013-09-23 18:32:00,62.8,42.8,30.07,NNE,23,4.5,4.5,48,2.59,,,0.86,WUHU216HW,2013-09-23 22:32:00,
2013-09-23 18:37:00,62.1,42.7,30.07,NNE,23,0.7,4.5,49,2.59,,,0.86,WUHU216HW,2013-09-23 22:37:00,
2013-09-23 18:42:00,61.6,42.8,30.07,NE,45,0.7,3.4,50,2.59,,,0.86,WUHU216HW,2013-09-23 22:42:00,
2013-09-23 18:47:00,61.2,42.5,30.07,ENE,68,0.4,1.8,50,2.59,,,0.86,WUHU216HW,2013-09-23 22:47:00,
2013-09-23 18:52:00,60.8,42.6,30.07,ENE,68,1.1,1.8,51,2.59,,,0.86,WUHU216HW,2013-09-23 22:52:00,
2013-09-23 18:57:00,60.7,42.9,30.07,NNE,23,0.0,1.6,52,2.59,,,0.86,WUHU216HW,2013-09-23 22:57:00,
2013-09-23 19:02:00,60.3,43.1,30.07,NE,45,1.3,1.3,53,2.59,,,0.89,WUHU216HW,2013-09-23 23:02:00,
2013-09-23 19:07:00,60.1,43.4,30.07,ENE,68,0.4,1.3,54,2.59,,,0.89,WUHU216HW,2013-09-23 23:07:00,
2013-09-23 19:12:00,59.8,43.6,30.07,ENE,68,0.0,1.3,55,2.59,,,0.89,WUHU216HW,2013-09-23 23:12:00,
2013-09-23 19:17:00,59.4,43.7,30.07,ENE,68,0.0,0.7,56,2.59,,,0.89,WUHU216HW,2013-09-23 23:17:00,
2013-09-23 19:22:00,59.0,43.3,30.07,ENE,68,0.0,0.0,56,2.59,,,0.89,WUHU216HW,2013-09-23 23:22:00,
2013-09-23 19:27:00,58.5,43.3,30.07,ENE,68,0.0,0.0,57,2.59,,,0.89,WUHU216HW,2013-09-23 23:27:00,
2013-09-23 19:32:00,58.0,43.3,30.07,ENE,68,0.0,0.0,58,2.59,,,0.89,WUHU216HW,2013-09-23 23:32:00,
2013-09-23 19:37:00,57.6,42.9,30.07,ENE,68,0.0,0.0,58,2.59,,,0.89,WUHU216HW,2013-09-23 23:37:00,
2013-09-23 19:42:00,57.2,43.1,30.07,ENE,68,0.0,0.0,59,2.59,,,0.89,WUHU216HW,2013-09-23 23:42:00,
2013-09-23 19:47:00,56.7,43.0,30.07,ENE,68,0.0,0.0,60,2.59,,,0.89,WUHU216HW,2013-09-23 23:47:00,
2013-09-23 19:52:00,56.2,42.9,30.07,ENE,68,0.0,0.0,61,2.59,,,0.89,WUHU216HW,2013-09-23 23:52:00,
2013-09-23 19:57:00,55.8,42.6,30.07,ENE,68,0.0,0.0,61,2.59,,,0.89,WUHU216HW,2013-09-23 23:57:00,
2013-09-23 20:02:00,55.1,42.3,30.07,ENE,68,0.0,0.0,62,2.59,,,0.94,WUHU216HW,2013-09-24 00:02:00,
2013-09-23 20:07:00,54.7,42.3,30.07,ENE,68,0.0,0.0,63,2.59,,,0.94,WUHU216HW,2013-09-24 00:07:00,
2013-09-23 20:12:00,54.2,41.9,30.07,North,0,0.0,0.0,63,2.59,,,0.94,WUHU216HW,2013-09-24 00:12:00,
2013-09-23 20:17:00,53.5,41.6,30.07,West,270,0.0,0.0,64,2.59,,,0.94,WUHU216HW,2013-09-24 00:17:00,
2013-09-23 20:22:00,52.9,41.1,30.07,WSW,248,0.0,0.0,64,2.59,,,0.94,WUHU216HW,2013-09-24 00:22:00,
2013-09-23 20:27:00,52.6,41.1,30.07,WSW,248,0.0,0.0,65,2.59,,,0.94,WUHU216HW,2013-09-24 00:27:00,
2013-09-23 20:32:00,52.2,41.1,30.07,WSW,248,0.0,0.0,66,2.59,,,0.94,WUHU216HW,2013-09-24 00:32:00,
2013-09-23 20:37:00,51.8,40.9,30.08,West,270,1.1,1.1,66,2.59,,,0.94,WUHU216HW,2013-09-24 00:37:00,
2013-09-23 20:42:00,51.3,40.7,30.08,WSW,248,1.1,1.6,67,2.59,,,0.94,WUHU216HW,2013-09-24 00:42:00,
2013-09-23 20:47:00,50.9,40.8,30.07,SW,225,0.2,1.6,68,2.59,,,0.94,WUHU216HW,2013-09-24 00:47:00,
2013-09-23 20:52:00,50.9,40.8,30.07,WSW,248,0.0,1.6,68,2.59,,,0.94,WUHU216HW,2013-09-24 00:52:00,
2013-09-23 20:57:00,50.9,41.2,30.07,SSE,158,0.0,1.1,69,2.59,,,0.94,WUHU216HW,2013-09-24 00:57:00,
2013-09-23 21:02:00,50.8,41.1,30.07,SSE,158,0.0,0.0,69,2.59,,,0.98,WUHU216HW,2013-09-24 01:02:00,
2013-09-23 21:07:00,50.8,41.1,30.07,ESE,113,0.4,1.1,69,2.59,,,0.98,WUHU216HW,2013-09-24 01:07:00,
2013-09-23 21:12:00,50.4,40.7,30.07,ESE,113,0.0,1.1,69,2.59,,,0.98,WUHU216HW,2013-09-24 01:12:00,
2013-09-23 21:17:00,50.2,40.9,30.07,SE,135,0.0,0.4,70,2.59,,,0.98,WUHU216HW,2013-09-24 01:17:00,
2013-09-23 21:22:00,50.0,40.7,30.07,SE,135,0.4,1.1,70,2.59,,,0.98,WUHU216HW,2013-09-24 01:22:00,
2013-09-23 21:27:00,50.0,41.1,30.07,SE,135,0.0,1.1,71,2.59,,,0.98,WUHU216HW,2013-09-24 01:27:00,
2013-09-23 21:32:00,49.9,40.9,30.07,ESE,113,1.1,1.1,71,2.59,,,0.98,WUHU216HW,2013-09-24 01:32:00,
2013-09-23 21:37:00,49.7,40.7,30.07,SE,135,0.0,1.1,71,2.59,,,0.98,WUHU216HW,2013-09-24 01:37:00,
2013-09-23 21:42:00,49.5,40.9,30.07,SE,135,0.4,1.1,72,2.59,,,0.98,WUHU216HW,2013-09-24 01:42:00,
2013-09-23 21:47:00,49.3,40.7,30.07,SE,135,0.0,0.4,72,2.59,,,0.98,WUHU216HW,2013-09-24 01:47:00,
2013-09-23 21:52:00,48.8,40.2,30.07,WSW,248,0.2,2.0,72,2.59,,,0.98,WUHU216HW,2013-09-24 01:52:00,
2013-09-23 21:57:00,48.2,39.9,30.07,East,90,0.4,2.0,73,2.59,,,0.98,WUHU216HW,2013-09-24 01:57:00,
2013-09-23 22:02:00,47.9,39.6,30.07,SE,135,0.0,0.9,73,2.59,,,1.02,WUHU216HW,2013-09-24 02:02:00,
2013-09-23 22:07:00,47.9,40.0,30.07,NNW,338,0.2,0.7,74,2.59,,,1.02,WUHU216HW,2013-09-24 02:07:00,
2013-09-23 22:12:00,47.7,39.8,30.07,SW,225,0.0,0.7,74,2.59,,,1.02,WUHU216HW,2013-09-24 02:12:00,
2013-09-23 22:17:00,47.7,40.2,30.07,SSW,203,0.0,0.0,75,2.59,,,1.02,WUHU216HW,2013-09-24 02:17:00,
2013-09-23 22:22:00,47.7,40.2,30.07,South,180,0.0,0.0,75,2.59,,,1.02,WUHU216HW,2013-09-24 02:22:00,
2013-09-23 22:27:00,47.7,40.2,30.07,South,180,0.0,0.0,75,2.59,,,1.02,WUHU216HW,2013-09-24 02:27:00,
2013-09-23 22:32:00,47.7,40.2,30.08,SSE,158,0.0,0.0,75,2.59,,,1.02,WUHU216HW,2013-09-24 02:32:00,
2013-09-23 22:37:00,47.5,40.0,30.07,SE,135,0.0,0.7,75,2.59,,,1.02,WUHU216HW,2013-09-24 02:37:00,
2013-09-23 22:42:00,47.5,40.0,30.07,SE,135,0.0,0.7,75,2.59,,,1.02,WUHU216HW,2013-09-24 02:42:00,
2013-09-23 22:47:00,47.3,39.8,30.07,SE,135,0.0,0.0,75,2.59,,,1.02,WUHU216HW,2013-09-24 02:47:00,
2013-09-23 22:52:00,47.2,39.6,30.07,SE,135,0.0,0.0,75,2.59,,,1.02,WUHU216HW,2013-09-24 02:52:00,
2013-09-23 22:57:00,47.2,40.0,30.07,SE,135,0.0,0.0,76,2.59,,,1.02,WUHU216HW,2013-09-24 02:57:00,
2013-09-23 23:02:00,47.0,39.8,30.07,SE,135,0.0,0.0,76,2.59,,,1.06,WUHU216HW,2013-09-24 03:02:00,
2013-09-23 23:07:00,47.0,39.8,30.07,SE,135,0.0,0.0,76,2.59,,,1.06,WUHU216HW,2013-09-24 03:07:00,
2013-09-23 23:12:00,46.8,39.6,30.07,SE,135,0.0,0.0,76,2.59,,,1.06,WUHU216HW,2013-09-24 03:12:00,
2013-09-23 23:17:00,46.8,39.6,30.07,SE,135,0.0,0.0,76,2.59,,,1.06,WUHU216HW,2013-09-24 03:17:00,
2013-09-23 23:22:00,46.8,40.0,30.07,SE,135,0.0,0.0,77,2.59,,,1.06,WUHU216HW,2013-09-24 03:22:00,
2013-09-23 23:27:00,46.8,40.0,30.08,SE,135,0.0,0.0,77,2.59,,,1.06,WUHU216HW,2013-09-24 03:27:00,
2013-09-23 23:32:00,46.6,39.8,30.07,SE,135,0.0,0.0,77,2.59,,,1.06,WUHU216HW,2013-09-24 03:32:00,
2013-09-23 23:37:00,46.4,39.7,30.07,SE,135,0.0,0.0,77,2.59,,,1.06,WUHU216HW,2013-09-24 03:37:00,
2013-09-23 23:42:00,46.4,40.0,30.08,SE,135,0.0,0.0,78,2.59,,,1.06,WUHU216HW,2013-09-24 03:42:00,
2013-09-23 23:47:00,46.4,40.0,30.08,SE,135,0.0,0.0,78,2.59,,,1.06,WUHU216HW,2013-09-24 03:47:00,
2013-09-23 23:52:00,46.3,39.8,30.08,ENE,68,0.0,0.0,78,2.59,,,1.06,WUHU216HW,2013-09-24 03:52:00,
2013-09-23 23:57:00,46.3,39.8,30.08,East,90,0.0,0.0,78,2.59,,,1.06,WUHU216HW,2013-09-24 03:57:00,